カタログに戻る

DELTA 1 DEB

運用中LEO
NORAD 7040·DEBRIS·🇺🇸 United States

打ち上げ Nov 6, 1973 から Vandenberg Space Force Base

Loading…

次のパス (今後24時間)

TLE

最新Source: Space-Track

元期: Sep 14, 2026, 13:42 UTC

1 07040U 73086AG  26257.57088641  .00000070  00000-0  48912-3 0  9990
2 07040 102.5337 119.1159 0193989 312.5187  75.9803 12.82497124468692

AllMySatでDELTA 1 DEBをリアルタイム追跡

Download on the App Store